Weather Roundup
Issued by NWS Chicago, IL

Home | Current Version | Previous Version | Text Only | Print | Product List | Glossary Off
Versions: 1 2 3 4 5 6 7 8 9 10 11 12 13 14 15 16 17 18 19 20 21 22 23 24 25 26 27 28 29 30 31 32 33 34 35 36 37 38 39 40 41 42 43 44 45 46 47 48 49 50

000
NZUS59 KLOT 211006
HRRLOT

CHICAGO AREA WEATHER ROUNDUP
NATIONAL WEATHER SERVICE CHICAGO/ROMEOVILLE IL
500 AM CDT TUE OCT 21 2014

NOTE: "FAIR" INDICATES FEW OR NO CLOUDS BELOW 12,000 FEET WITH NO
SIGNIFICANT WEATHER AND/OR OBSTRUCTIONS TO VISIBILITY.

* THESE STATIONS ARE NOT UNDER NWS QUALITY CONTROL. THEY ALSO MAY NOT
  REPORT WEATHER SUCH AS PRECIPITATION OR FOG.

ILZ005-006-012>014-019>023-211100-
NORTHEAST ILLINOIS

CITY           SKY/WX    TMP DP  RH WIND       PRES   REMARKS
OHARE          CLOUDY    49  41  74 N10       30.04R
MIDWAY         CLOUDY    52  43  71 N9        30.04R
AURORA         CLOUDY    47  42  83 NW5       30.06R
LANSING*       CLOUDY    50  46  87 N6        30.04R
JOLIET*        CLOUDY    49  43  80 CALM      30.05R
WAUKEGAN       CLEAR     45  40  82 NW6       30.05R
DUPAGE AIRPORT CLOUDY    48  40  73 N9        30.05R
WHEELING       CLOUDY    50  41  71 N8        30.06R
KANKAKEE*      CLOUDY    48  44  84 NW5       30.05R
MORRIS*        CLOUDY    47  44  90 CALM      30.04R
LEWIS AIRPORT* CLOUDY    49  42  78 N5        30.05R
NORTHERLY IS     N/A     51  44  77 N9          N/A
$$

WIZ051-052-058>065-066-070>072-211100-
SOUTHEAST WISCONSIN

CITY           SKY/WX    TMP DP  RH WIND       PRES   REMARKS
MILWAUKEE      MOCLDY    46  39  76 N10       30.07R
KENOSHA*       PTCLDY    44  39  82 N6        30.06R
RACINE*        CLOUDY    46  40  79 N8        30.08R
BURLINGTON     MOCLDY    42  37  80 N3        30.07R
WAUKESHA       CLOUDY    43  36  75 N9        30.08R
WEST BEND      CLOUDY    43  36  75 N7        30.08R
$$

INZ001>003-010>013-019-020-211100-
NORTHWEST INDIANA

CITY           SKY/WX    TMP DP  RH WIND       PRES   REMARKS
GARY*          CLOUDY    52  46  82 N14       30.04R
MICHIGAN CITY* NOT AVBL
RENSSELAER*    NOT AVBL
VALPARAISO     LGT RAIN  48  45  89 N8        30.03R
$$

LMZ740>746-211100-
SOUTHERN LAKE MICHIGAN

STATION/POSITION TIME  SKY/WX   TEMP WIND        PRES    VSBY
                                AIR  DIR/SP/G
                 (UTC)          (F)  (DEG/KT/KT) (MB)    (MI)
HARRISON CRIB    1000            51  360/ 20/ 24   N/A
BURNHAM HARBOR   1000            51  340/  9/ 16   N/A
CALUMET HARBOR   1000            50  360/  9/ 14 1016.0R
BURNS HARBOR     NOT AVBL
MICHIGAN CITY    1000            51  350/ 17/ 20   N/A
$$

ABBREVIATIONS USED IN REMARKS
   TC - TEMPERATURE IN CELSIUS
  WCI - WIND CHILL INDEX
   HX - HEAT INDEX
  VSB - VISIBILITY
$$



USA.gov is the U.S. government's official web portal to all federal, state and local government web resources and services.